Satellite-Ground Cal/Val Site Overpasses Predictions

Prediction of Satellite NPP Overpassing Cal/Val Site: Antarctic Dome C

Ground Cal/Val Site Location: Latitude: -75.10, Longitude: 123.35; Satellite-Ground Site NADIR distance within 100 km.

Table of predicted overpasses for the next 14.0 days since TLE Epoch: 6/28/2016
Interval Starting Time Ending Time Minimum Distance Time Minimum Distance (km)
1 06/29/2016 15:08:33 06/29/2016 15:08:41 06/29/2016 15:08:37 95.42
2 06/30/2016 14:49:32 06/30/2016 14:50:01 06/30/2016 14:49:47 15.82
3 07/02/2016 07:32:21 07/02/2016 07:32:51 07/02/2016 07:32:36 0.75
4 07/05/2016 14:55:48 07/05/2016 14:56:17 07/05/2016 14:56:02 20.65
5 07/06/2016 14:37:05 07/06/2016 14:37:19 07/06/2016 14:37:12 86.46
6 07/07/2016 07:38:38 07/07/2016 07:39:05 07/07/2016 07:38:51 36.69
7 07/08/2016 07:19:51 07/08/2016 07:20:10 07/08/2016 07:20:01 73.38
8 07/10/2016 15:02:05 07/10/2016 15:02:29 07/10/2016 15:02:17 57.59


NCC Satellite Cal/Val Overpasses Prediction Service
